N7LK Weather Reports


time (UTC)temp
C
wind
direction
speed
KPH
gust
KPH
rain 1hr
cm
rain 24hr
cm
rain mn
cm
humidity
%
barometer
mb
20260902050330 33 161 1.6 4.8 0.00 0.00 0.00 39 1010.4
20260902045337 33 140 3.2 4.8 0.00 0.00 0.00 39 1010.3
20260902044345 33 130 0.0 3.2 0.00 0.00 0.00 40 1010.2
20260902043335 33 135 1.6 4.8 0.00 0.00 0.00 39 1010.1
20260902042341 33 129 1.6 3.2 0.00 0.00 0.00 39 1010.0
20260902041327 33 90 0.0 0.0 0.00 0.00 0.00 37 1010.0
20260902040354 34 65 0.0 0.0 0.00 0.00 0.00 37 1009.9
20260902035401 34 65 0.0 1.6 0.00 0.00 0.00 36 1009.8
20260902034331 34 321 0.0 1.6 0.00 0.00 0.00 37 1009.8
20260902033336 34 285 0.0 1.6 0.00 0.00 0.00 37 1009.6
20260902032342 35 285 0.0 1.6 0.00 0.00 0.00 37 1009.4
20260902031349 35 285 0.0 0.0 0.00 0.00 0.00 36 1009.0
20260902030337 35 285 0.0 0.0 0.00 0.00 0.00 37 1009.0
20260902025343 35 285 0.0 1.6 0.00 0.00 0.00 36 1008.8
20260902024331 35 285 0.0 0.0 0.00 0.00 0.00 36 1008.6
20260902023338 35 285 0.0 0.0 0.00 0.00 0.00 35 1008.6
20260902022349 36 285 0.0 0.0 0.00 0.00 0.00 36 1008.6
20260902021334 36 285 0.0 1.6 0.00 0.00 0.00 35 1008.6
20260902020341 36 285 0.0 3.2 0.00 0.00 0.00 34 1008.6
20260902015329 36 323 0.0 4.8 0.00 0.00 0.00 33 1008.3
20260902014338 37 300 1.6 4.8 0.00 0.00 0.00 33 1008.3
20260902013341 37 153 3.2 8.0 0.00 0.00 0.00 31 1008.3
20260902012329 37 186 1.6 4.8 0.00 0.00 0.00 31 1008.3
20260902011357 38 283 1.6 4.8 0.00 0.00 0.00 31 1008.3
20260902010327 38 360 0.0 6.4 0.00 0.00 0.00 30 1008.4
20260902005336 38 207 3.2 8.0 0.00 0.00 0.00 30 1008.6
20260902004343 38 156 4.8 8.0 0.00 0.00 0.00 30 1008.7
20260902003330 38 51 3.2 8.0 0.00 0.00 0.00 29 1008.7
20260902002342 38 293 3.2 11.3 0.00 0.00 0.00 30 1008.9
20260902001349 38 263 1.6 6.4 0.00 0.00 0.00 28 1008.9
20260902000334 38 284 4.8 9.7 0.00 0.00 0.00 29 1008.9
20260901235341 38 267 3.2 6.4 0.00 0.00 0.00 31 1008.9
20260901234348 38 88 0.0 6.4 0.00 0.00 0.00 32 1009.0
20260901233338 38 266 3.2 6.4 0.00 0.00 0.00 31 1009.2
20260901232344 38 240 4.8 11.3 0.00 0.00 0.00 32 1009.3
20260901231331 38 213 6.4 12.9 0.00 0.00 0.00 31 1009.4
20260901230338 38 259 1.6 11.3 0.00 0.00 0.00 32 1009.5
20260901225330 38 192 4.8 19.3 0.00 0.00 0.00 32 1009.6
20260901224337 38 195 3.2 9.7 0.00 0.00 0.00 33 1009.6
20260901223343 38 144 6.4 9.7 0.00 0.00 0.00 33 1009.7
20260901222329 37 175 4.8 12.9 0.00 0.00 0.00 32 1009.8
20260901221400 38 157 8.0 14.5 0.00 0.00 0.00 33 1009.9
20260901220346 38 244 4.8 11.3 0.00 0.00 0.00 33 1010.0
20260901215330 37 229 9.7 12.9 0.00 0.00 0.00 34 1010.2
20260901214337 37 163 6.4 16.1 0.00 0.00 0.00 35 1010.3
20260901213343 37 243 4.8 14.5 0.00 0.00 0.00 34 1010.4
20260901212333 37 192 8.0 16.1 0.00 0.00 0.00 36 1010.7
20260901211340 36 197 6.4 14.5 0.00 0.00 0.00 37 1010.8
20260901210327 36 78 3.2 8.0 0.00 0.00 0.00 38 1011.1
20260901205334 36 226 6.4 16.1 0.00 0.00 0.00 37 1011.2
20260901204345 36 245 4.8 12.9 0.00 0.00 0.00 38 1011.4
20260901203331 36 269 6.4 11.3 0.00 0.00 0.00 38 1011.5
20260901202339 36 147 3.2 12.9 0.00 0.00 0.00 39 1011.6
20260901201403 36 95 6.4 14.5 0.00 0.00 0.00 39 1011.8
20260901200333 36 97 3.2 9.7 0.00 0.00 0.00 39 1011.9
20260901195400 36 320 4.8 9.7 0.00 0.00 0.00 39 1012.0
20260901194347 36 229 8.0 17.7 0.00 0.00 0.00 40 1012.2
20260901193331 36 121 4.8 12.9 0.00 0.00 0.00 40 1012.3
20260901192340 35 284 1.6 8.0 0.00 0.00 0.00 39 1012.4
20260901191346 35 225 3.2 6.4 0.00 0.00 0.00 40 1012.6
20260901190333 35 182 6.4 9.7 0.00 0.00 0.00 41 1012.8
20260901185339 35 77 6.4 11.3 0.00 0.00 0.00 42 1013.0
20260901184329 34 172 4.8 8.0 0.00 0.00 0.00 42 1013.0
20260901183334 34 120 6.4 12.9 0.00 0.00 0.00 43 1013.1
20260901182342 34 85 3.2 9.7 0.00 0.00 0.00 43 1013.3
20260901181329 33 108 6.4 11.3 0.00 0.00 0.00 45 1013.3
20260901180341 33 219 6.4 11.3 0.00 0.00 0.00 45 1013.4
20260901175327 33 19 1.6 12.9 0.00 0.00 0.00 46 1013.5
20260901174333 33 167 1.6 8.0 0.00 0.00 0.00 46 1013.6
20260901173359 32 140 4.8 12.9 0.00 0.00 0.00 47 1013.7
20260901172344 32 204 4.8 11.3 0.00 0.00 0.00 47 1013.8
20260901171355 32 53 3.2 9.7 0.00 0.00 0.00 47 1013.9
20260901170340 32 169 4.8 11.3 0.00 0.00 0.00 49 1013.8
20260901165328 31 160 4.8 14.5 0.00 0.00 0.00 50 1013.7
20260901164356 31 175 4.8 12.9 0.00 0.00 0.00 50 1013.7
20260901163341 31 151 4.8 11.3 0.00 0.00 0.00 50 1013.7
20260901162333 31 148 3.2 12.9 0.00 0.00 0.00 52 1013.5
20260901161339 31 101 6.4 16.1 0.00 0.00 0.00 51 1013.5
20260901160345 30 109 3.2 12.9 0.00 0.00 0.00 51 1013.4
20260901155330 30 128 4.8 11.3 0.00 0.20 0.00 52 1013.4
20260901154341 30 78 3.2 12.9 0.00 0.20 0.00 53 1013.3
20260901153328 30 119 3.2 12.9 0.00 0.20 0.00 53 1013.3
20260901152336 29 88 4.8 11.3 0.00 0.20 0.00 55 1013.3
20260901151327 28 58 3.2 12.9 0.00 0.20 0.00 56 1013.1
20260901150333 28 58 6.4 14.5 0.00 0.20 0.00 56 1013.1
20260901145359 28 113 3.2 12.9 0.00 0.53 0.00 57 1013.1
20260901144344 28 67 3.2 8.0 0.00 0.53 0.00 58 1013.1
20260901143331 27 104 1.6 6.4 0.00 0.53 0.00 61 1013.0
20260901142343 27 53 0.0 4.8 0.00 0.53 0.00 64 1013.1
20260901141330 26 110 1.6 4.8 0.00 0.53 0.00 66 1013.1
20260901140337 26 84 0.0 1.6 0.00 0.53 0.00 68 1013.1
20260901135404 25 101 0.0 3.2 0.00 0.56 0.00 69 1013.0
20260901134333 25 67 0.0 1.6 0.00 0.56 0.00 69 1012.9
20260901133339 25 67 0.0 0.0 0.00 0.56 0.00 69 1012.9
20260901132327 25 67 0.0 0.0 0.00 0.56 0.00 69 1012.7
20260901131354 25 67 0.0 1.6 0.00 0.56 0.00 69 1012.6
20260901130344 25 65 0.0 1.6 0.00 0.56 0.00 69 1012.4
20260901125331 25 95 0.0 0.0 0.00 0.56 0.00 68 1012.5
20260901124337 25 95 0.0 0.0 0.00 0.56 0.00 67 1012.5
20260901123345 25 95 0.0 0.0 0.00 0.56 0.00 66 1012.4
20260901122356 25 95 0.0 0.0 0.00 0.56 0.00 65 1012.4
20260901121341 26 95 0.0 1.6 0.00 0.56 0.00 65 1012.3
20260901120345 26 80 0.0 0.0 0.00 0.56 0.00 64 1012.2
20260901115331 26 80 0.0 1.6 0.00 0.56 0.00 64 1012.1
20260901114341 26 74 0.0 1.6 0.00 0.56 0.00 63 1012.1
20260901113327 26 76 0.0 1.6 0.00 0.56 0.00 63 1012.1
20260901112334 26 80 1.6 6.4 0.00 0.56 0.00 63 1011.9
20260901111400 26 66 1.6 6.4 0.00 0.56 0.00 64 1012.0
20260901110331 26 67 0.0 4.8 0.00 0.56 0.00 65 1011.9
20260901105338 26 66 1.6 6.4 0.00 0.56 0.00 65 1011.9
20260901104345 26 45 0.0 0.0 0.00 0.56 0.00 67 1011.9
20260901103351 26 67 0.0 0.0 0.00 0.56 0.00 67 1011.9
20260901102336 26 84 0.0 3.2 0.00 0.56 0.00 67 1012.0
20260901101405 26 78 0.0 0.0 0.00 0.56 0.00 66 1012.0
20260901100331 26 67 0.0 1.6 0.00 0.56 0.00 66 1012.0
20260901095337 26 75 0.0 3.2 0.00 0.56 0.00 66 1012.0
20260901094345 26 90 0.0 4.8 0.00 0.56 0.00 66 1012.0
20260901093335 26 102 0.0 3.2 0.00 0.56 0.00 66 1012.1
20260901092342 26 59 0.0 3.2 0.00 0.56 0.00 65 1012.1
20260901091331 26 65 1.6 3.2 0.00 0.56 0.00 65 1012.0
20260901090338 26 99 0.0 3.2 0.00 0.56 0.00 64 1012.1
20260901085328 26 61 0.0 1.6 0.00 0.56 0.00 64 1012.2
20260901084334 26 56 0.0 0.0 0.00 0.56 0.00 63 1012.2
20260901083340 26 55 0.0 0.0 0.00 0.56 0.00 62 1012.2
20260901082329 27 46 0.0 3.2 0.00 0.56 0.00 62 1012.2
20260901081335 27 67 0.0 4.8 0.00 0.56 0.00 62 1012.2
20260901080342 27 61 1.6 4.8 0.00 0.56 0.00 61 1012.2
20260901075329 27 88 1.6 3.2 0.00 0.56 0.00 60 1012.2
20260901074341 27 80 0.0 1.6 0.00 0.56 0.00 59 1012.3
20260901073327 27 57 0.0 4.8 0.00 0.56 0.00 58 1012.2
20260901072333 27 46 1.6 4.8 0.00 0.56 0.00 57 1012.1
20260901071341 27 70 0.0 4.8 0.00 0.56 0.00 56 1012.0
20260901070332 28 54 0.0 3.2 0.00 0.56 0.00 56 1012.0
20260901065340 28 21 0.0 1.6 0.00 0.58 0.56 56 1011.9
20260901064326 28 38 0.0 3.2 0.00 0.58 0.56 55 1011.9
20260901063333 28 97 1.6 4.8 0.00 0.58 0.56 55 1011.8
20260901062343 28 116 0.0 6.4 0.00 0.58 0.56 55 1011.8
20260901061331 28 153 3.2 6.4 0.00 0.58 0.56 54 1011.7
20260901060338 28 128 0.0 4.8 0.00 0.58 0.56 53 1011.6
20260901055344 28 101 0.0 4.8 0.00 0.64 0.56 53 1011.5
20260901054335 28 159 1.6 9.7 0.00 0.64 0.56 53 1011.6
20260901053402 28 97 3.2 8.0 0.00 0.64 0.56 53 1011.6
20260901052347 28 171 1.6 6.4 0.00 0.64 0.56 53 1011.6
20260901051335 28 146 4.8 11.3 0.00 0.64 0.56 52 1011.6